Weather in Dubbo

Australia     32°15′14″S   148°36′26″E
temp.,
°C
wind,
m/s
gust,
m/s
humid.,
%
clouds,
%
prec.,
mm/h
press.,
hPa
HPBL,
m
23 april, fri
fri2301:00+7sw11650 0.0 101910
04:00+7w11680 0.0 101910
07:00+7w11710 0.0 102110
10:00+15wsw35510 0.0 1021898
13:00+18sw45410 0.0 10191590
16:00+18sw45410 0.0 10181589
19:00+12ssw2258100 0.0 102018
22:00+11s22610 0.0 102210
24 april, sat
sat2401:00+9se2266100 0.0 102210
04:00+9se1167100 0.0 102211
07:00+9sse1168100 0.0 102312
10:00+16ssw124877 0.0 1024557
13:00+20sw3435100 0.0 10211672
16:00+19sw4538100 0.0 10201594
19:00+13s34550 0.0 102262
22:00+12sse22610 0.0 102414
25 april, sun
sun2501:00+10sse22680 0.0 102411
04:00+9sse22730 0.0 102420
07:00+8sse22750 0.0 102537
10:00+17s34440 0.0 1024963
13:00+20sw34320 0.0 10221731
16:00+19sw55360 0.0 10211524
19:00+13ssw39530 0.0 1024152
22:00+11s33590 0.0 102544
26 april, mon
mon2601:00+10sse38650 0.0 1025148
04:00+9se33690 0.0 102450
07:00+8se35730 0.0 102679
10:00+17ese34530 0.0 1026605
13:00+21se23390 0.0 10231568
16:00+21sse23370 0.0 10221641
19:00+14s22540 0.0 102421
22:00+12se35600 0.0 102571
27 april, tue
tue2701:00+10se37900 0.0 1025151
04:00+10ese311930 0.0 1025247
07:00+10ese411935 0.0 1027311
10:00+18e45600 0.0 1026742
13:00+22ne22431 0.0 10241734
16:00+22se124034 0.0 10221908
19:00+18ese255093 0.0 1023124
22:00+15e4127014 0.0 1025357